| time (UTC) | temp F | wind direction | speed knots | gust knots | rain 1hr in | rain 24hr in | rain mn in | humidity % | barometer mb |
| 20260906215002 | 92 | 10 | 2.6 | 3.5 | 0.00 | 0.00 | 0.00 | 30 | 1017.2 |
| 20260906214502 | 90 | 44 | 1.7 | 5.2 | 0.00 | 0.00 | 0.00 | 32 | 1017.4 |
| 20260906214002 | 90 | 82 | 2.6 | 7.0 | 0.00 | 0.00 | 0.00 | 31 | 1017.3 |
| 20260906213502 | 91 | 63 | 0.0 | 3.5 | 0.00 | 0.00 | 0.00 | 30 | 1017.5 |
| 20260906213002 | 90 | 44 | 0.0 | 2.6 | 0.00 | 0.00 | 0.00 | 31 | 1017.5 |
| 20260906212502 | 91 | 340 | 0.0 | 2.6 | 0.00 | 0.00 | 0.00 | 31 | 1017.6 |
| 20260906212002 | 91 | 319 | 0.0 | 1.7 | 0.00 | 0.00 | 0.00 | 30 | 1017.7 |
| 20260906211502 | 91 | 158 | 0.9 | 4.3 | 0.00 | 0.00 | 0.00 | 29 | 1017.9 |
| 20260906211002 | 90 | 99 | 0.9 | 1.7 | 0.00 | 0.00 | 0.00 | 30 | 1017.9 |
| 20260906210502 | 90 | 0 | 0.0 | 1.7 | 0.00 | 0.00 | 0.00 | 31 | 1017.6 |
| 20260906205502 | 88 | 332 | 1.7 | 2.6 | 0.00 | 0.00 | 0.00 | 31 | 1018.0 |
| 20260906205002 | 89 | 339 | 0.0 | 2.6 | 0.00 | 0.00 | 0.00 | 32 | 1017.9 |
| 20260906204002 | 90 | 338 | 0.9 | 2.6 | 0.00 | 0.00 | 0.00 | 31 | 1018.2 |
| 20260906203502 | 88 | 306 | 0.9 | 3.5 | 0.00 | 0.00 | 0.00 | 34 | 1018.2 |
| 20260906203002 | 89 | 114 | 1.7 | 3.5 | 0.00 | 0.00 | 0.00 | 32 | 1018.3 |
| 20260906202502 | 89 | 227 | 2.6 | 3.5 | 0.00 | 0.00 | 0.00 | 32 | 1018.4 |
| 20260906202002 | 88 | 322 | 1.7 | 2.6 | 0.00 | 0.00 | 0.00 | 35 | 1018.3 |
| 20260906201502 | 90 | 104 | 0.0 | 3.5 | 0.00 | 0.00 | 0.00 | 33 | 1018.3 |
| 20260906201002 | 89 | 306 | 1.7 | 3.5 | 0.00 | 0.00 | 0.00 | 34 | 1018.4 |
| 20260906200503 | 90 | 118 | 1.7 | 2.6 | 0.00 | 0.00 | 0.00 | 32 | 1018.5 |
| 20260906200002 | 89 | 331 | 2.6 | 7.0 | 0.00 | 0.00 | 0.00 | 34 | 1018.5 |
| 20260906195502 | 87 | 351 | 1.7 | 2.6 | 0.00 | 0.00 | 0.00 | 35 | 1018.7 |
| 20260906195002 | 87 | 111 | 0.0 | 3.5 | 0.00 | 0.00 | 0.00 | 34 | 1018.9 |
| 20260906194502 | 87 | 104 | 0.0 | 2.6 | 0.00 | 0.00 | 0.00 | 35 | 1018.7 |
| 20260906194002 | 86 | 62 | 1.7 | 2.6 | 0.00 | 0.00 | 0.00 | 36 | 1018.7 |
| 20260906193502 | 86 | 269 | 0.9 | 2.6 | 0.00 | 0.00 | 0.00 | 35 | 1018.7 |
| 20260906193002 | 87 | 127 | 0.9 | 1.7 | 0.00 | 0.00 | 0.00 | 35 | 1018.9 |
| 20260906192502 | 87 | 27 | 0.0 | 1.7 | 0.00 | 0.00 | 0.00 | 36 | 1019.1 |
| 20260906192002 | 86 | 340 | 1.7 | 1.7 | 0.00 | 0.00 | 0.00 | 36 | 1019.0 |
| 20260906191502 | 84 | 340 | 1.7 | 2.6 | 0.00 | 0.00 | 0.00 | 38 | 1019.4 |
| 20260906190502 | 85 | 160 | 1.7 | 1.7 | 0.00 | 0.00 | 0.00 | 36 | 1019.3 |
| 20260906190002 | 85 | 0 | 0.9 | 1.7 | 0.00 | 0.00 | 0.00 | 38 | 1019.3 |
| 20260906185503 | 84 | 281 | 0.0 | 2.6 | 0.00 | 0.00 | 0.00 | 40 | 1019.4 |
| 20260906185001 | 84 | 357 | 0.9 | 2.6 | 0.00 | 0.00 | 0.00 | 39 | 1019.6 |
| 20260906184503 | 84 | 46 | 0.0 | 4.3 | 0.00 | 0.00 | 0.00 | 41 | 1020.2 |
| 20260906184003 | 84 | 62 | 0.9 | 3.5 | 0.00 | 0.00 | 0.00 | 42 | 1020.3 |
| 20260906183002 | 83 | 169 | 0.0 | 2.6 | 0.00 | 0.00 | 0.00 | 44 | 1019.8 |
| 20260906182502 | 82 | 339 | 0.9 | 3.5 | 0.00 | 0.00 | 0.00 | 44 | 1020.1 |
| 20260906182002 | 82 | 97 | 1.7 | 2.6 | 0.00 | 0.00 | 0.00 | 45 | 1020.2 |
| 20260906180502 | 81 | 263 | 2.6 | 3.5 | 0.00 | 0.00 | 0.00 | 45 | 1020.6 |
| 20260906180002 | 81 | 83 | 1.7 | 3.5 | 0.00 | 0.00 | 0.00 | 46 | 1020.6 |
| 20260906174502 | 79 | 73 | 0.0 | 3.5 | 0.00 | 0.00 | 0.00 | 48 | 1020.9 |
| 20260906174002 | 80 | 246 | 1.7 | 5.2 | 0.00 | 0.00 | 0.00 | 45 | 1020.8 |
| 20260906173502 | 81 | 84 | 0.9 | 1.7 | 0.00 | 0.00 | 0.00 | 47 | 1021.2 |
| 20260906173002 | 80 | 100 | 1.7 | 3.5 | 0.00 | 0.00 | 0.00 | 47 | 1021.2 |
| 20260906172501 | 81 | 0 | 2.6 | 4.3 | 0.00 | 0.00 | 0.00 | 47 | 1021.2 |
| 20260906172002 | 80 | 106 | 0.0 | 1.7 | 0.00 | 0.00 | 0.00 | 48 | 1021.2 |
| 20260906171502 | 80 | 53 | 0.9 | 2.6 | 0.00 | 0.00 | 0.00 | 49 | 1021.4 |
| 20260906171002 | 80 | 353 | 0.0 | 2.6 | 0.00 | 0.00 | 0.00 | 49 | 1021.4 |
| 20260906170502 | 80 | 0 | 0.0 | 1.7 | 0.00 | 0.00 | 0.00 | 49 | 1021.6 |
| 20260906170002 | 80 | 38 | 0.0 | 1.7 | 0.00 | 0.00 | 0.00 | 49 | 1021.5 |
| 20260906165502 | 80 | 323 | 0.9 | 3.5 | 0.00 | 0.00 | 0.00 | 49 | 1021.6 |
| 20260906165002 | 80 | 0 | 3.5 | 3.5 | 0.00 | 0.00 | 0.00 | 47 | 1021.5 |
| 20260906164502 | 78 | 67 | 1.7 | 2.6 | 0.00 | 0.00 | 0.00 | 50 | 1021.6 |
| 20260906164002 | 77 | 320 | 1.7 | 4.3 | 0.00 | 0.00 | 0.00 | 49 | 1021.4 |
| 20260906163502 | 76 | 358 | 1.7 | 5.2 | 0.00 | 0.00 | 0.00 | 50 | 1021.6 |
| 20260906163002 | 77 | 334 | 4.3 | 7.0 | 0.00 | 0.00 | 0.00 | 48 | 1021.4 |
| 20260906162502 | 76 | 74 | 0.0 | 3.5 | 0.00 | 0.00 | 0.00 | 51 | 1021.5 |
| 20260906162001 | 76 | 4 | 1.7 | 3.5 | 0.00 | 0.00 | 0.00 | 48 | 1021.4 |
| 20260906161503 | 77 | 356 | 1.7 | 1.7 | 0.00 | 0.00 | 0.00 | 47 | 1021.4 |
| 20260906160503 | 78 | 335 | 0.9 | 2.6 | 0.00 | 0.00 | 0.00 | 47 | 1021.6 |
| 20260906160002 | 77 | 14 | 0.0 | 1.7 | 0.00 | 0.00 | 0.00 | 50 | 1021.6 |
| 20260906154502 | 72 | 357 | 3.5 | 4.3 | 0.00 | 0.00 | 0.00 | 58 | 1021.8 |
| 20260906153502 | 72 | 8 | 2.6 | 4.3 | 0.00 | 0.00 | 0.00 | 60 | 1021.7 |
| 20260906153002 | 73 | 4 | 1.7 | 2.6 | 0.00 | 0.00 | 0.00 | 59 | 1021.8 |
| 20260906152502 | 72 | 13 | 2.6 | 2.6 | 0.00 | 0.00 | 0.00 | 61 | 1021.6 |
| 20260906152002 | 71 | 0 | 3.5 | 4.3 | 0.00 | 0.00 | 0.00 | 61 | 1021.7 |
| 20260906151502 | 71 | 111 | 0.9 | 3.5 | 0.00 | 0.00 | 0.00 | 62 | 1021.7 |
| 20260906151002 | 73 | 336 | 1.7 | 4.3 | 0.00 | 0.00 | 0.00 | 59 | 1021.8 |
| 20260906150502 | 72 | 58 | 0.0 | 1.7 | 0.00 | 0.00 | 0.00 | 63 | 1021.9 |
| 20260906150002 | 72 | 95 | 0.9 | 1.7 | 0.00 | 0.00 | 0.00 | 60 | 1022.1 |
| 20260906145502 | 71 | 32 | 0.0 | 4.3 | 0.00 | 0.00 | 0.00 | 63 | 1021.9 |
| 20260906144502 | 69 | 358 | 3.5 | 4.3 | 0.00 | 0.00 | 0.00 | 65 | 1021.7 |
| 20260906144002 | 68 | 8 | 1.7 | 5.2 | 0.00 | 0.00 | 0.00 | 65 | 1021.7 |
| 20260906143502 | 68 | 0 | 4.3 | 6.1 | 0.00 | 0.00 | 0.00 | 66 | 1021.6 |
| 20260906143002 | 66 | 0 | 1.7 | 2.6 | 0.00 | 0.00 | 0.00 | 65 | 1021.6 |
| 20260906142502 | 66 | 19 | 1.7 | 3.5 | 0.00 | 0.00 | 0.00 | 65 | 1021.7 |
| 20260906142002 | 68 | 11 | 2.6 | 3.5 | 0.00 | 0.00 | 0.00 | 64 | 1021.7 |
| 20260906141002 | 67 | 49 | 1.7 | 2.6 | 0.00 | 0.00 | 0.00 | 65 | 1021.9 |
| 20260906140503 | 67 | 11 | 4.3 | 4.3 | 0.00 | 0.00 | 0.00 | 64 | 1021.8 |
| 20260906140003 | 66 | 6 | 1.7 | 3.5 | 0.00 | 0.00 | 0.00 | 63 | 1021.8 |
| 20260906135502 | 65 | 9 | 2.6 | 3.5 | 0.00 | 0.00 | 0.00 | 66 | 1022.1 |
| 20260906135002 | 65 | 21 | 2.6 | 4.3 | 0.00 | 0.00 | 0.00 | 67 | 1021.6 |
| 20260906134501 | 64 | 17 | 2.6 | 4.3 | 0.00 | 0.00 | 0.00 | 67 | 1021.8 |
| 20260906134002 | 63 | 2 | 2.6 | 3.5 | 0.00 | 0.00 | 0.00 | 68 | 1021.8 |
| 20260906133503 | 62 | 17 | 3.5 | 3.5 | 0.00 | 0.00 | 0.00 | 69 | 1021.9 |
| 20260906132503 | 61 | 6 | 2.6 | 2.6 | 0.00 | 0.00 | 0.00 | 68 | 1021.8 |
| 20260906131502 | 61 | 353 | 2.6 | 2.6 | 0.00 | 0.00 | 0.00 | 70 | 1021.7 |
| 20260906131002 | 60 | 4 | 2.6 | 2.6 | 0.00 | 0.00 | 0.00 | 72 | 1021.6 |
| 20260906130502 | 60 | 355 | 2.6 | 3.5 | 0.00 | 0.00 | 0.00 | 74 | 1021.5 |
| 20260906130002 | 59 | 3 | 3.5 | 3.5 | 0.00 | 0.00 | 0.00 | 76 | 1021.7 |
| 20260906125002 | 60 | 4 | 2.6 | 3.5 | 0.00 | 0.00 | 0.00 | 78 | 1021.6 |
| 20260906124002 | 60 | 20 | 1.7 | 2.6 | 0.00 | 0.00 | 0.00 | 80 | 1021.5 |
| 20260906123502 | 61 | 11 | 2.6 | 2.6 | 0.00 | 0.00 | 0.00 | 82 | 1021.5 |
| 20260906123002 | 61 | 13 | 2.6 | 3.5 | 0.00 | 0.00 | 0.00 | 82 | 1021.4 |
| 20260906122502 | 61 | 6 | 2.6 | 3.5 | 0.00 | 0.00 | 0.00 | 82 | 1021.4 |
| 20260906122002 | 61 | 3 | 2.6 | 3.5 | 0.00 | 0.00 | 0.00 | 82 | 1021.7 |
| 20260906121502 | 61 | 342 | 1.7 | 1.7 | 0.00 | 0.00 | 0.00 | 81 | 1021.6 |
| 20260906121002 | 61 | 7 | 2.6 | 2.6 | 0.00 | 0.00 | 0.00 | 82 | 1021.4 |
| 20260906120502 | 61 | 33 | 1.7 | 1.7 | 0.00 | 0.00 | 0.00 | 81 | 1021.4 |
| 20260906120002 | 62 | 35 | 1.7 | 1.7 | 0.00 | 0.00 | 0.00 | 80 | 1021.7 |
| 20260906115002 | 62 | 9 | 1.7 | 2.6 | 0.00 | 0.00 | 0.00 | 78 | 1021.5 |
| 20260906114502 | 62 | 321 | 0.9 | 1.7 | 0.00 | 0.00 | 0.00 | 78 | 1021.6 |
| 20260906114002 | 62 | 353 | 0.9 | 1.7 | 0.00 | 0.00 | 0.00 | 79 | 1021.6 |
| 20260906113502 | 62 | 304 | 0.9 | 1.7 | 0.00 | 0.00 | 0.00 | 78 | 1021.6 |
| 20260906113002 | 62 | 343 | 0.9 | 1.7 | 0.00 | 0.00 | 0.00 | 76 | 1021.7 |
| 20260906112502 | 62 | 2 | 1.7 | 1.7 | 0.00 | 0.00 | 0.00 | 77 | 1021.4 |
| 20260906112002 | 62 | 32 | 1.7 | 1.7 | 0.00 | 0.00 | 0.00 | 75 | 1021.2 |
| 20260906111502 | 62 | 38 | 1.7 | 2.6 | 0.00 | 0.00 | 0.00 | 73 | 1021.4 |
| 20260906111002 | 62 | 10 | 1.7 | 2.6 | 0.00 | 0.00 | 0.00 | 70 | 1021.4 |
| 20260906110502 | 62 | 4 | 1.7 | 3.5 | 0.00 | 0.00 | 0.00 | 66 | 1021.1 |
| 20260906110002 | 63 | 5 | 2.6 | 3.5 | 0.00 | 0.00 | 0.00 | 66 | 1021.4 |
| 20260906105502 | 62 | 10 | 2.6 | 2.6 | 0.00 | 0.00 | 0.00 | 65 | 1021.4 |
| 20260906105002 | 62 | 355 | 2.6 | 2.6 | 0.00 | 0.00 | 0.00 | 66 | 1021.5 |
| 20260906104503 | 62 | 6 | 1.7 | 2.6 | 0.00 | 0.00 | 0.00 | 61 | 1021.6 |
| 20260906103502 | 62 | 347 | 1.7 | 1.7 | 0.00 | 0.00 | 0.00 | 59 | 1021.4 |
| 20260906103002 | 62 | 3 | 1.7 | 2.6 | 0.00 | 0.00 | 0.00 | 60 | 1021.5 |
| 20260906102501 | 62 | 0 | 1.7 | 1.7 | 0.00 | 0.00 | 0.00 | 61 | 1021.5 |
| 20260906102003 | 63 | 353 | 2.6 | 2.6 | 0.00 | 0.00 | 0.00 | 59 | 1021.2 |
| 20260906101502 | 62 | 354 | 2.6 | 2.6 | 0.00 | 0.00 | 0.00 | 60 | 1021.2 |
| 20260906101002 | 62 | 16 | 0.0 | 1.7 | 0.00 | 0.00 | 0.00 | 60 | 1021.2 |
| 20260906100502 | 62 | 331 | 1.7 | 1.7 | 0.00 | 0.00 | 0.00 | 60 | 1021.2 |
| 20260906095502 | 63 | 351 | 1.7 | 2.6 | 0.00 | 0.00 | 0.00 | 59 | 1021.0 |
| 20260906094502 | 64 | 31 | 0.9 | 1.7 | 0.00 | 0.00 | 0.00 | 58 | 1021.0 |
| 20260906094002 | 64 | 13 | 0.9 | 1.7 | 0.00 | 0.00 | 0.00 | 58 | 1021.0 |
| 20260906093502 | 64 | 358 | 1.7 | 2.6 | 0.00 | 0.00 | 0.00 | 60 | 1020.8 |
| 20260906093002 | 65 | 9 | 1.7 | 1.7 | 0.00 | 0.00 | 0.00 | 59 | 1020.8 |
| 20260906092502 | 65 | 0 | 1.7 | 2.6 | 0.00 | 0.00 | 0.00 | 59 | 1020.6 |
| 20260906092002 | 64 | 354 | 2.6 | 3.5 | 0.00 | 0.00 | 0.00 | 60 | 1020.6 |
| 20260906091002 | 64 | 1 | 2.6 | 2.6 | 0.00 | 0.00 | 0.00 | 57 | 1020.6 |
| 20260906090502 | 64 | 3 | 1.7 | 1.7 | 0.00 | 0.00 | 0.00 | 56 | 1020.6 |
| 20260906090002 | 65 | 340 | 1.7 | 2.6 | 0.00 | 0.00 | 0.00 | 56 | 1020.4 |
| 20260906085502 | 65 | 356 | 2.6 | 2.6 | 0.00 | 0.00 | 0.00 | 56 | 1020.6 |
| 20260906085002 | 66 | 0 | 2.6 | 3.5 | 0.00 | 0.00 | 0.00 | 55 | 1020.6 |
| 20260906084502 | 65 | 348 | 2.6 | 3.5 | 0.00 | 0.00 | 0.00 | 55 | 1020.3 |
| 20260906084002 | 65 | 5 | 1.7 | 2.6 | 0.00 | 0.00 | 0.00 | 55 | 1020.6 |
| 20260906083502 | 66 | 338 | 2.6 | 3.5 | 0.00 | 0.00 | 0.00 | 54 | 1020.8 |
| 20260906083002 | 66 | 13 | 1.7 | 1.7 | 0.00 | 0.00 | 0.00 | 54 | 1020.8 |
| 20260906082002 | 66 | 352 | 3.5 | 3.5 | 0.00 | 0.00 | 0.00 | 55 | 1020.9 |
| 20260906081503 | 66 | 14 | 1.7 | 2.6 | 0.00 | 0.00 | 0.00 | 55 | 1020.6 |
| 20260906080502 | 67 | 353 | 3.5 | 5.2 | 0.00 | 0.00 | 0.00 | 54 | 1020.6 |
| 20260906080002 | 67 | 359 | 2.6 | 5.2 | 0.00 | 0.00 | 0.00 | 54 | 1020.8 |
| 20260906075501 | 67 | 8 | 2.6 | 4.3 | 0.00 | 0.00 | 0.00 | 54 | 1020.6 |
| 20260906075002 | 67 | 2 | 2.6 | 5.2 | 0.00 | 0.00 | 0.00 | 53 | 1020.8 |
| 20260906074502 | 68 | 16 | 3.5 | 7.0 | 0.00 | 0.00 | 0.00 | 52 | 1021.0 |
| 20260906074002 | 67 | 357 | 4.3 | 5.2 | 0.00 | 0.00 | 0.00 | 53 | 1020.8 |
| 20260906073502 | 67 | 356 | 3.5 | 5.2 | 0.00 | 0.00 | 0.00 | 52 | 1020.6 |
| 20260906073002 | 67 | 357 | 2.6 | 5.2 | 0.00 | 0.00 | 0.00 | 50 | 1020.6 |
| 20260906072502 | 67 | 3 | 3.5 | 7.0 | 0.00 | 0.00 | 0.00 | 50 | 1020.6 |
| 20260906072002 | 67 | 1 | 6.1 | 7.8 | 0.00 | 0.00 | 0.00 | 51 | 1020.4 |
| 20260906071502 | 66 | 1 | 4.3 | 7.8 | 0.00 | 0.00 | 0.00 | 52 | 1020.8 |
| 20260906071002 | 67 | 359 | 3.5 | 3.5 | 0.00 | 0.00 | 0.00 | 51 | 1020.9 |
| 20260906070002 | 67 | 359 | 3.5 | 4.3 | 0.00 | 0.00 | 0.00 | 51 | 1021.1 |
| 20260906065502 | 67 | 359 | 2.6 | 3.5 | 0.00 | 0.00 | 0.00 | 51 | 1020.8 |
| 20260906065002 | 68 | 359 | 2.6 | 2.6 | 0.00 | 0.00 | 0.00 | 52 | 1020.9 |
| 20260906064502 | 68 | 32 | 0.9 | 1.7 | 0.00 | 0.00 | 0.00 | 51 | 1021.0 |
| 20260906063502 | 69 | 16 | 1.7 | 1.7 | 0.00 | 0.00 | 0.00 | 48 | 1020.9 |
| 20260906063002 | 70 | 333 | 0.0 | 1.7 | 0.00 | 0.00 | 0.00 | 47 | 1021.0 |
| 20260906062502 | 70 | 180 | 0.0 | 1.7 | 0.00 | 0.00 | 0.00 | 47 | 1021.1 |
| 20260906062002 | 69 | 248 | 0.0 | 1.7 | 0.00 | 0.00 | 0.00 | 47 | 1020.9 |
| 20260906061502 | 69 | 0 | 2.6 | 2.6 | 0.00 | 0.00 | 0.00 | 48 | 1020.8 |
| 20260906061002 | 69 | 20 | 1.7 | 1.7 | 0.00 | 0.00 | 0.00 | 49 | 1020.6 |
| 20260906060502 | 69 | 3 | 1.7 | 2.6 | 0.00 | 0.00 | 0.00 | 49 | 1020.6 |
| 20260906055502 | 70 | 345 | 1.7 | 5.2 | 0.00 | 0.00 | 0.00 | 47 | 1020.6 |
| 20260906055001 | 68 | 346 | 2.6 | 3.5 | 0.00 | 0.00 | 0.00 | 48 | 1020.6 |
| 20260906054502 | 67 | 304 | 0.9 | 2.6 | 0.00 | 0.00 | 0.00 | 49 | 1020.9 |
| 20260906054002 | 68 | 1 | 2.6 | 2.6 | 0.00 | 0.00 | 0.00 | 48 | 1020.9 |
| 20260906053502 | 68 | 1 | 3.5 | 3.5 | 0.00 | 0.00 | 0.00 | 47 | 1021.1 |
| 20260906053002 | 68 | 11 | 0.0 | 0.9 | 0.00 | 0.00 | 0.00 | 47 | 1021.1 |
| 20260906052502 | 68 | 4 | 0.9 | 1.7 | 0.00 | 0.00 | 0.00 | 48 | 1020.9 |
| 20260906052002 | 68 | 255 | 1.7 | 2.6 | 0.00 | 0.00 | 0.00 | 48 | 1020.8 |
| 20260906051502 | 69 | 89 | 0.0 | 2.6 | 0.00 | 0.00 | 0.00 | 48 | 1021.4 |
| 20260906051002 | 69 | 58 | 0.9 | 0.9 | 0.00 | 0.00 | 0.00 | 47 | 1020.4 |
| 20260906050002 | 69 | 1 | 2.6 | 5.2 | 0.00 | 0.00 | 0.00 | 48 | 1019.8 |
| 20260906045502 | 69 | 345 | 2.6 | 3.5 | 0.00 | 0.00 | 0.00 | 47 | 1020.0 |
| 20260906045003 | 69 | 296 | 0.9 | 3.5 | 0.00 | 0.00 | 0.00 | 47 | 1020.0 |
| 20260906044503 | 70 | 249 | 1.7 | 1.7 | 0.00 | 0.00 | 0.00 | 45 | 1020.0 |
| 20260906044002 | 71 | 53 | 1.7 | 1.7 | 0.00 | 0.00 | 0.00 | 46 | 1019.6 |
| 20260906043002 | 72 | 3 | 4.3 | 5.2 | 0.00 | 0.00 | 0.00 | 44 | 1019.4 |
| 20260906042502 | 72 | 356 | 4.3 | 5.2 | 0.00 | 0.00 | 0.00 | 44 | 1019.4 |
| 20260906042002 | 72 | 5 | 3.5 | 5.2 | 0.00 | 0.00 | 0.00 | 43 | 1019.4 |
| 20260906041502 | 73 | 4 | 4.3 | 5.2 | 0.00 | 0.00 | 0.00 | 43 | 1019.4 |
| 20260906041002 | 72 | 9 | 4.3 | 5.2 | 0.00 | 0.00 | 0.00 | 43 | 1019.3 |
| 20260906040502 | 71 | 0 | 3.5 | 5.2 | 0.00 | 0.00 | 0.00 | 43 | 1019.4 |
| 20260906040003 | 71 | 345 | 2.6 | 3.5 | 0.00 | 0.00 | 0.00 | 42 | 1019.5 |
| 20260906035502 | 72 | 2 | 3.5 | 3.5 | 0.00 | 0.00 | 0.00 | 40 | 1019.6 |
| 20260906035002 | 72 | 349 | 3.5 | 3.5 | 0.00 | 0.00 | 0.00 | 41 | 1019.5 |
| 20260906034502 | 72 | 348 | 2.6 | 3.5 | 0.00 | 0.00 | 0.00 | 40 | 1019.7 |
| 20260906034003 | 72 | 359 | 2.6 | 2.6 | 0.00 | 0.00 | 0.00 | 39 | 1019.6 |
| 20260906033502 | 73 | 352 | 2.6 | 3.5 | 0.00 | 0.00 | 0.00 | 39 | 1019.4 |
| 20260906033002 | 73 | 353 | 1.7 | 3.5 | 0.00 | 0.00 | 0.00 | 38 | 1019.5 |
| 20260906032502 | 74 | 335 | 1.7 | 5.2 | 0.00 | 0.00 | 0.00 | 37 | 1019.6 |
| 20260906032002 | 74 | 8 | 2.6 | 2.6 | 0.00 | 0.00 | 0.00 | 38 | 1019.6 |
| 20260906031502 | 74 | 354 | 2.6 | 2.6 | 0.00 | 0.00 | 0.00 | 38 | 1019.6 |
| 20260906031002 | 74 | 3 | 2.6 | 2.6 | 0.00 | 0.00 | 0.00 | 38 | 1019.4 |
| 20260906030002 | 75 | 0 | 0.9 | 1.7 | 0.00 | 0.00 | 0.00 | 37 | 1019.3 |
| 20260906025502 | 76 | 327 | 0.9 | 2.6 | 0.00 | 0.00 | 0.00 | 36 | 1019.1 |
| 20260906025002 | 77 | 349 | 2.6 | 3.5 | 0.00 | 0.00 | 0.00 | 35 | 1018.9 |
| 20260906024502 | 78 | 23 | 0.9 | 2.6 | 0.00 | 0.00 | 0.00 | 34 | 1019.0 |
| 20260906024002 | 78 | 4 | 1.7 | 2.6 | 0.00 | 0.00 | 0.00 | 30 | 1018.7 |
| 20260906023502 | 78 | 354 | 1.7 | 3.5 | 0.00 | 0.00 | 0.00 | 31 | 1018.7 |
| 20260906023003 | 77 | 13 | 1.7 | 3.5 | 0.00 | 0.00 | 0.00 | 32 | 1019.0 |
| 20260906022502 | 78 | 357 | 2.6 | 2.6 | 0.00 | 0.00 | 0.00 | 32 | 1018.8 |
| 20260906021002 | 80 | 353 | 4.3 | 5.2 | 0.00 | 0.00 | 0.00 | 28 | 1018.5 |
| 20260906020502 | 80 | 343 | 2.6 | 3.5 | 0.00 | 0.00 | 0.00 | 28 | 1018.4 |
| 20260906015502 | 81 | 309 | 1.7 | 4.3 | 0.00 | 0.00 | 0.00 | 28 | 1018.3 |
| 20260906014002 | 81 | 269 | 2.6 | 8.7 | 0.00 | 0.00 | 0.00 | 28 | 1018.4 |
| 20260906013502 | 81 | 260 | 5.2 | 10.4 | 0.00 | 0.00 | 0.00 | 28 | 1018.3 |
| 20260906013002 | 81 | 300 | 5.2 | 5.2 | 0.00 | 0.00 | 0.00 | 29 | 1018.0 |
| 20260906012502 | 81 | 311 | 2.6 | 5.2 | 0.00 | 0.00 | 0.00 | 28 | 1018.4 |
| 20260906012002 | 82 | 315 | 1.7 | 7.0 | 0.00 | 0.00 | 0.00 | 29 | 1018.3 |
| 20260906010002 | 81 | 324 | 3.5 | 7.8 | 0.00 | 0.00 | 0.00 | 29 | 1018.7 |
| 20260906005502 | 81 | 302 | 2.6 | 6.1 | 0.00 | 0.00 | 0.00 | 30 | 1018.3 |
| 20260906005002 | 81 | 290 | 3.5 | 6.1 | 0.00 | 0.00 | 0.00 | 30 | 1018.5 |
| 20260906004503 | 82 | 328 | 3.5 | 9.6 | 0.00 | 0.00 | 0.00 | 30 | 1018.4 |
| 20260906004002 | 82 | 308 | 4.3 | 8.7 | 0.00 | 0.00 | 0.00 | 29 | 1018.5 |
| 20260906003502 | 82 | 308 | 5.2 | 8.7 | 0.00 | 0.00 | 0.00 | 29 | 1018.5 |
| 20260906003001 | 82 | 320 | 5.2 | 9.6 | 0.00 | 0.00 | 0.00 | 29 | 1018.8 |
| 20260906002503 | 82 | 312 | 7.0 | 13.0 | 0.00 | 0.00 | 0.00 | 29 | 1018.8 |
| 20260906002002 | 83 | 324 | 6.1 | 17.4 | 0.00 | 0.00 | 0.00 | 29 | 1018.3 |
| 20260906001502 | 84 | 353 | 7.8 | 9.6 | 0.00 | 0.00 | 0.00 | 27 | 1018.4 |
| 20260906001002 | 85 | 351 | 7.0 | 10.4 | 0.00 | 0.00 | 0.00 | 26 | 1018.5 |
| 20260906000502 | 85 | 330 | 7.8 | 12.2 | 0.00 | 0.00 | 0.00 | 26 | 1018.5 |
| 20260906000002 | 85 | 350 | 7.8 | 11.3 | 0.00 | 0.00 | 0.00 | 28 | 1018.5 |
| 20260905235502 | 84 | 278 | 7.8 | 11.3 | 0.00 | 0.00 | 0.00 | 27 | 1018.4 |
| 20260905235003 | 85 | 277 | 7.8 | 13.9 | 0.00 | 0.00 | 0.00 | 26 | 1018.4 |
| 20260905234502 | 86 | 323 | 7.0 | 11.3 | 0.00 | 0.00 | 0.00 | 25 | 1018.7 |
| 20260905234002 | 87 | 292 | 7.0 | 7.8 | 0.00 | 0.00 | 0.00 | 23 | 1018.5 |
| 20260905233502 | 88 | 344 | 2.6 | 3.5 | 0.00 | 0.00 | 0.00 | 23 | 1018.4 |
| 20260905232502 | 88 | 65 | 0.9 | 1.7 | 0.00 | 0.00 | 0.00 | 22 | 1018.2 |
| 20260905232002 | 89 | 323 | 0.9 | 1.7 | 0.00 | 0.00 | 0.00 | 23 | 1018.1 |
| 20260905231502 | 89 | 348 | 0.9 | 1.7 | 0.00 | 0.00 | 0.00 | 23 | 1017.9 |
| 20260905231002 | 90 | 345 | 1.7 | 3.5 | 0.00 | 0.00 | 0.00 | 21 | 1018.0 |
| 20260905230002 | 90 | 331 | 1.7 | 2.6 | 0.00 | 0.00 | 0.00 | 21 | 1017.7 |
| 20260905225502 | 89 | 308 | 0.0 | 2.6 | 0.00 | 0.00 | 0.00 | 22 | 1017.7 |
| 20260905224002 | 89 | 348 | 0.0 | 0.9 | 0.00 | 0.00 | 0.00 | 22 | 1017.7 |
| 20260905223502 | 89 | 310 | 1.7 | 1.7 | 0.00 | 0.00 | 0.00 | 23 | 1017.7 |
| 20260905223002 | 90 | 117 | 0.0 | 0.9 | 0.00 | 0.00 | 0.00 | 22 | 1017.7 |
| 20260905222502 | 90 | 258 | 0.0 | 1.7 | 0.00 | 0.00 | 0.00 | 22 | 1018.0 |
| 20260905222002 | 91 | 240 | 0.0 | 2.6 | 0.00 | 0.00 | 0.00 | 21 | 1017.6 |
| 20260905221002 | 93 | 33 | 0.0 | 2.6 | 0.00 | 0.00 | 0.00 | 20 | 1017.6 |
| 20260905220502 | 93 | 304 | 0.0 | 3.5 | 0.00 | 0.00 | 0.00 | 20 | 1017.5 |
| 20260905215502 | 92 | 333 | 0.0 | 0.9 | 0.00 | 0.00 | 0.00 | 20 | 1018.0 |